Flag for Japan Weather past 2 weeks in Sendai, Japan

Now
36 °F

Sprinkles. Partly cloudy.


Feels Like: 27 °F
Forecast: 29 / 37 °F
Wind: 14 mph from West

Location: Sendai Airport

Current Time: Feb 1, 2015 at 2:52:05 AM

Latest Report: Jan 31, 2015 at 9:00 PM


Visibility: N/A

Pressure: 29.89 "Hg

Humidity: 87%

Dew point: 32 °F

Location of SendaiLocation

Historic Weather in Sendai — Graph

°F

Sendai temperature yesterday

Maximum temperature yesterday: 43 °F (at 12:00 PM)
Minimum temperature yesterday: 27 °F (at 7:00 AM)
Average temperature yesterday: 37 °F

Past Weeks' High & Low Weather Summary

 TemperatureHumidityPressure
High52 °F (Jan 27, 1:00 PM)100% (Jan 22, 6:00 AM)30.45 "Hg (Jan 22, 6:00 AM)
Low23 °F (Jan 21, 6:00 AM)31% (Jan 29, 12:00 PM)29.53 "Hg (Jan 23, 6:00 AM)
Average38 °F68%30.01 "Hg
* Reported Jan 16 9:00 PM — Jan 31 9:00 PM, Sendai, Weather by CustomWeather, © 2014

Note: Actual official high and low records may vary slightly from our data, if they occured in-between our weather recording intervals... More about our weather records

Advertising

Sendai weather history for previous 24 hours

 ConditionsComfort  
Time TempWeatherWind HumidityBarometerVisibility
9:00 PM
Jan 31
36 °FSprinkles. Partly cloudy.14 mph87%29.89 "HgN/A
8:48 PM37 °FSnow flurries. Partly cloudy.12 mph87%29.89 "HgN/A
8:00 PM34 °FSnow flurries. Partly cloudy.2 mph100%29.89 "HgN/A
7:00 PM37 °FSprinkles. Partly cloudy.20 mph81%29.83 "HgN/A
6:00 PM39 °FScattered showers. Passing clouds.7 mph65%29.80 "HgN/A
5:00 PM41 °FPassing clouds.7 mph57%29.77 "HgN/A
4:00 PM43 °FPartly sunny.16 mph53%29.74 "HgN/A
3:00 PM41 °FPartly sunny.7 mph61%29.74 "HgN/A
2:00 PM41 °FPartly sunny.3 mph57%29.71 "HgN/A
1:00 PM41 °FScattered clouds.3 mph53%29.71 "HgN/A
12:00 PM43 °FPartly sunny.3 mph49%29.71 "HgN/A
11:00 AM41 °FPartly sunny.6 mph57%29.74 "HgN/A
10:00 AM37 °FScattered clouds.3 mph75%29.77 "HgN/A
9:00 AM36 °FScattered clouds.2 mph81%29.77 "HgN/A
8:00 AM32 °FScattered clouds.7 mph93%29.74 "HgN/A
7:00 AM27 °FBroken clouds.3 mph100%29.74 "HgN/A
6:00 AM30 °FPassing clouds.No wind100%29.71 "HgN/A
Weather by CustomWeather, © 2014

See weather overviewHow to use our weather pages